Notices

What's New in latest Release from April 7th, 2021:

- Updated Glossary, including Speed of Maximum Gust, and Total Hourly Precipitation

- Updated national and regional climate services offices contacts and prices information

- Addition of station inventory lists for 1981-2010, 1971-2000, and 1961-1990 Normals.

If you haven't already, please take our survey and provide feedback about our website: https://eccc.sondage-survey.ca/f/LanguageSelection.aspx?s=442ca660-fcf1-47c0-95a9-59707d6fd709

Hourly Data Report for August 22, 2020

TORONTO CITY
ONTARIO
Current Station Operator: ECCC - MSC

43°40'00.000" N
79°24'00.000" W
112.50 m
6158355
71508
XTO

Download Data

Hourly Data (August 2020)
Hourly Data Report for August 22, 2020
TIME
LST
Temp Definition
°C
Dew Point Definition
°C
Rel Hum Definition
%
Precip. Amount Definition
mm

Wind Dir Definition
10's deg

Wind Spd Definition
km/h
Visibility Definition
km
Stn Press Definition
kPa
Hmdx Definition


Wind Chill Definition


Weather Definition


00:00 21.5 17.1 76 0.0       99.88 27   LegendNANA
01:00 20.9 17.4 80 0.0       99.90 26   LegendNANA
02:00 21.6 18.3 82 0.0       99.93 28   LegendNANA
03:00 21.2 17.9 81 0.0       99.95 27   LegendNANA
04:00 20.9 18.0 84 0.0       99.91 27   LegendNANA
05:00 20.6 17.5 83 0.0       99.94 26   LegendNANA
06:00 20.9 17.4 80 0.0       99.96 26   LegendNANA
07:00 21.7 17.3 76 0.0       100.01 27   LegendNANA
08:00 22.7 18.3 76 0.0       100.02 29   LegendNANA
09:00 23.8 18.4 72 0.0       100.03 30   LegendNANA
10:00 25.6 18.0 63 0.0       100.08 32   LegendNANA
11:00 25.6 16.4 57 0.0       100.09 30   LegendNANA
12:00 27.3 15.9 50 0.0       100.07 32   LegendNANA
13:00 29.0 16.5 47 0.0       100.00 34   LegendNANA
14:00 29.4 16.4 46 0.0       99.96 34   LegendNANA
15:00 29.6 16.8 46 0.0       99.95 35   LegendNANA
16:00 27.5 17.1 53 0.0       99.93 33   LegendNANA
17:00 26.7 18.3 60 0.0       99.94 33   LegendNANA
18:00 26.1 18.9 64 0.0       99.95 33   LegendNANA
19:00 25.5 18.8 66 0.0       99.98 32   LegendNANA
20:00 25.0 19.0 69 0.0       100.02 32   LegendNANA
21:00 24.3 18.0 68 0.0       100.06 30   LegendNANA
22:00 23.8 17.5 68 0.0       100.10 29   LegendNANA
23:00 23.7 17.4 68 0.0       100.12 29   LegendNANA

Notes on Data Quality.

Legend

  • E = Estimated
  • M = Missing
  • NA = Not Available*
  • [empty] = Indicates an unobserved value
Date modified: